Notices

What's New in latest Release from April 7th, 2021:

- Updated Glossary, including Speed of Maximum Gust, and Total Hourly Precipitation

- Updated national and regional climate services offices contacts and prices information

- Addition of station inventory lists for 1981-2010, 1971-2000, and 1961-1990 Normals.

If you haven't already, please take our survey and provide feedback about our website: https://eccc.sondage-survey.ca/f/LanguageSelection.aspx?s=442ca660-fcf1-47c0-95a9-59707d6fd709

Hourly Data Report for April 13, 2021

KENORA A
ONTARIO
Current Station Operator: NAVCAN

49°47'18.000" N
94°21'47.000" W
409.70 m
6034076
71850
YQK

Download Data

Hourly Data (April 2021)
Hourly Data Report for April 13, 2021
TIME
LST
Temp Definition
°C
Dew Point Definition
°C
Rel Hum Definition
%
Precip. Amount Definition
mm

Wind Dir Definition
10's deg

Wind Spd Definition
km/h
Visibility Definition
km
Stn Press Definition
kPa
Hmdx Definition


Wind Chill Definition


Weather Definition


00:00 0.1 -0.2 98   3 16 2.4 96.11     Snow,Fog
01:00 0.1 -0.2 98   3 13 4.8 96.12     Snow,Fog
02:00 0.0 -0.2 98   2 14 6.4 96.10   -4 Snow,Fog
03:00 0.0 -0.2 98   2 14 4.8 96.10   -4 Snow,Fog
04:00 -0.1 -0.4 98   2 15 4.8 96.11   -5 Snow,Fog
05:00 -0.2 -0.4 98   2 21 4.0 96.13   -6 Snow,Fog
06:00 -0.3 -0.6 98   3 17 4.8 96.17   -5 Snow
07:00 -0.4 -1.0 96   2 21 3.2 96.23   -6 Snow,Fog
08:00 -0.6 -1.1 96   3 21 1.6 96.26   -6 Snow,Fog
09:00 -0.5 -1.2 95   4 23 1.6 96.30   -6 Snow,Fog
10:00 -0.4 -1.2 94   2 20 1.6 96.36   -6 Snow,Fog
11:00 -0.2 -1.0 94   3 19 2.4 96.41   -5 Snow,Fog
12:00 0.2 -0.8 94   3 17 1.6 96.44     Snow,Fog
13:00 0.3 -0.5 94   3 20 3.2 96.48     Snow,Fog
14:00 0.7 -0.3 93   3 18 3.2 96.53     Snow,Fog
15:00 0.6 -0.2 94   2 19 4.8 96.57     Snow,Fog
16:00 0.7 -0.1 94   3 20 6.4 96.63     Snow,Fog
17:00 0.6 -0.1 95   2 16 4.8 96.70     Snow,Fog
18:00 0.5 -0.1 96   2 18 3.2 96.77     Snow,Fog
19:00 0.3 -0.2 97   3 15 4.0 96.84     Snow,Fog
20:00 0.2 -0.2 97   3 15 8.1 96.92     Drizzle,Snow,Fog
21:00 0.1 -0.4 96   3 20 12.9 96.98     Snow
22:00 0.0 -0.4 97   4 18 12.9 97.04   -5 Snow
23:00 -0.1 -0.6 97   3 16 12.9 97.10   -5 Snow

Notes on Data Quality.

Legend

  • E = Estimated
  • M = Missing
  • NA = Not Available*
  • [empty] = Indicates an unobserved value
Date modified: